timestamp,surface_pressure_avg,surface_temp_avg,battery_voltage,lat,long
2020-01-12 00:09:01+00:00,371.0862,1.5,12.73,47.84626,-54.09684
2020-01-12 00:19:01+00:00,372.5713,1.5,12.73,47.84626,-54.09684
2020-01-12 00:29:01+00:00,380.4645,1.5,12.73,47.84626,-54.09684
2020-01-12 00:39:01+00:00,380.0746,1.5,12.73,47.84626,-54.09684
2020-01-12 00:49:01+00:00,378.4129,1.5,12.73,47.84626,-54.09684
2020-01-12 00:59:01+00:00,382.2563,1.5,12.73,47.84626,-54.09684
2020-01-12 01:09:01+00:00,381.2062,1.5,12.73,47.84626,-54.09684
2020-01-12 01:19:01+00:00,375.93800000000016,1.5,12.73,47.84626,-54.09684
2020-01-12 01:29:01+00:00,377.0713,1.5,12.73,47.84626,-54.09684
2020-01-12 01:39:01+00:00,376.858,1.5,12.73,47.84626,-54.09684
2020-01-12 01:49:01+00:00,368.0813,1.5,12.73,47.84626,-54.09684
2020-01-12 01:59:01+00:00,363.5545,1.5,12.73,47.84626,-54.09684
2020-01-12 02:09:01+00:00,366.1229,1.5,12.73,47.84626,-54.09684
2020-01-12 02:19:01+00:00,359.8546,1.5,12.73,47.84626,-54.09684
2020-01-12 02:29:01+00:00,346.3163,1.5,12.73,47.84626,-54.09684
2020-01-12 02:39:01+00:00,342.1346,1.5,12.73,47.84626,-54.09684
2020-01-12 02:49:01+00:00,331.6413,1.5,12.73,47.84626,-54.09684
2020-01-12 02:59:01+00:00,319.9564,1.5,12.73,47.84626,-54.09684
2020-01-12 03:09:01+00:00,314.9529,1.5,12.73,47.84626,-54.09684
2020-01-12 03:19:01+00:00,303.2797,1.5,12.65,47.84626,-54.09684
2020-01-12 03:29:01+00:00,285.7164,1.5,12.65,47.84626,-54.09684
2020-01-12 03:39:01+00:00,275.673,1.5,12.65,47.84626,-54.09684
2020-01-12 03:49:01+00:00,272.818,1.5,12.65,47.84626,-54.09684
2020-01-12 03:59:01+00:00,255.3031,1.5,12.65,47.84626,-54.09684
2020-01-12 04:09:01+00:00,242.4147,1.5,12.65,47.84626,-54.09684
2020-01-12 04:19:01+00:00,239.2798,1.5,12.65,47.84626,-54.09684
2020-01-12 04:29:01+00:00,233.4148,1.5,12.65,47.84626,-54.09684
2020-01-12 04:39:01+00:00,213.8298,1.5,12.65,47.84626,-54.09684
2020-01-12 04:49:01+00:00,201.6515,1.5,12.65,47.84626,-54.09684
2020-01-12 04:59:01+00:00,206.6615,1.5,12.65,47.84626,-54.09684
2020-01-12 05:09:01+00:00,205.6864,1.5,12.65,47.84626,-54.09684
2020-01-12 05:19:01+00:00,193.0181,1.5,12.65,47.84626,-54.09684
2020-01-12 05:29:01+00:00,188.5882,1.5,12.65,47.84626,-54.09684
2020-01-12 05:39:01+00:00,187.6798,1.5,12.65,47.84626,-54.09684
2020-01-12 05:49:01+00:00,180.2481,1.5,12.65,47.84626,-54.09684
2020-01-12 05:59:01+00:00,174.1831,1.5,12.65,47.84626,-54.09684
2020-01-12 06:09:01+00:00,172.3615,1.5,12.65,47.84626,-54.09684
2020-01-12 06:19:01+00:00,170.3831,1.5,12.65,47.84626,-54.09684
2020-01-12 06:29:01+00:00,170.5398,1.5,12.65,47.84626,-54.09684
2020-01-12 06:39:01+00:00,172.6881,1.5,12.65,47.84626,-54.09684
2020-01-12 06:49:01+00:00,177.0865,1.5,12.65,47.84626,-54.09684
2020-01-12 06:59:01+00:00,179.0881,1.5,12.65,47.84626,-54.09684
2020-01-12 07:09:01+00:00,180.7715,1.5,12.65,47.84626,-54.09684
2020-01-12 07:19:01+00:00,183.6248,1.51,12.65,47.84626,-54.09684
2020-01-12 07:29:01+00:00,182.3348,1.55,12.65,47.84626,-54.09684
2020-01-12 07:39:01+00:00,181.9231,1.56,12.65,47.84626,-54.09684
2020-01-12 07:49:01+00:00,191.0964,1.56,12.65,47.84626,-54.09684
2020-01-12 07:59:01+00:00,196.6864,1.56,12.65,47.84626,-54.09684
2020-01-12 08:09:01+00:00,199.3598,1.57,12.65,47.84626,-54.09684
2020-01-12 08:19:01+00:00,205.5348,1.57,12.65,47.84626,-54.09684
2020-01-12 08:29:01+00:00,213.4215,1.55,12.65,47.84626,-54.09684
2020-01-12 08:39:01+00:00,213.0281,1.54,12.65,47.84626,-54.09684
2020-01-12 08:49:01+00:00,214.9981,1.53,12.65,47.84626,-54.09684
2020-01-12 08:59:01+00:00,222.9197,1.52,12.65,47.84626,-54.09684
2020-01-12 09:09:01+00:00,226.4747,1.51,12.65,47.84626,-54.09684
2020-01-12 09:19:01+00:00,232.4247,1.51,12.65,47.84626,-54.09684
2020-01-12 09:29:01+00:00,244.0897,1.5,12.65,47.84626,-54.09684
2020-01-12 09:39:01+00:00,253.4448,1.5,12.65,47.84626,-54.09684
2020-01-12 09:49:01+00:00,258.8347,1.4,12.65,47.84626,-54.09684
2020-01-12 09:59:01+00:00,266.5247,1.4,12.65,47.84626,-54.09684
2020-01-12 10:09:01+00:00,285.0964,1.4,12.65,47.84626,-54.09684
2020-01-12 10:19:01+00:00,295.8963,1.4,12.65,47.84626,-54.09684
2020-01-12 10:29:01+00:00,293.9013,1.4,12.65,47.84626,-54.09684
2020-01-12 10:39:01+00:00,296.9963,1.4,12.65,47.84626,-54.09684
2020-01-12 10:49:01+00:00,317.2996,1.4,12.65,47.84626,-54.09684
2020-01-12 10:59:01+00:00,329.7097,1.42,12.65,47.84626,-54.09684
2020-01-12 11:09:01+00:00,335.4429,1.41,12.65,47.84626,-54.09684
2020-01-12 11:19:01+00:00,352.1879,1.43,12.65,47.84626,-54.09684
2020-01-12 11:29:01+00:00,365.0829,1.45,12.65,47.84626,-54.09684
2020-01-12 11:39:01+00:00,364.3895,1.46,12.65,47.84626,-54.09684
2020-01-12 11:49:01+00:00,365.5196,1.45,12.65,47.84626,-54.09684
2020-01-12 11:59:01+00:00,375.4862,1.46,12.65,47.84626,-54.09684
2020-01-12 12:09:01+00:00,380.848,1.48,12.65,47.84626,-54.09684
2020-01-12 12:19:01+00:00,380.6613,1.47,12.73,47.84626,-54.09684
2020-01-12 12:29:01+00:00,382.5829,1.48,12.73,47.84626,-54.09684
2020-01-12 12:39:01+00:00,387.5529,1.49,12.73,47.84626,-54.09684
2020-01-12 12:49:01+00:00,390.6396,1.49,12.73,47.84626,-54.09684
2020-01-12 12:59:01+00:00,388.8096,1.43,12.73,47.84626,-54.09684
2020-01-12 13:09:01+00:00,396.2112,1.4,12.73,47.84626,-54.09684
2020-01-12 13:19:01+00:00,400.3829,1.4,12.81,47.84626,-54.09684
2020-01-12 13:29:01+00:00,396.4628,1.4,12.81,47.84626,-54.09684
2020-01-12 13:39:01+00:00,395.2445,1.4,12.81,47.84626,-54.09684
2020-01-12 13:49:01+00:00,393.7145,1.43,12.81,47.84626,-54.09684
2020-01-12 13:59:01+00:00,391.6779,1.4,12.81,47.84626,-54.09684
2020-01-12 14:09:01+00:00,388.0646,1.4,12.81,47.84626,-54.09684
2020-01-12 14:19:01+00:00,385.8596,1.38,12.81,47.84626,-54.09684
2020-01-12 14:29:01+00:00,380.2747,1.39,12.81,47.84626,-54.09684
2020-01-12 14:39:01+00:00,368.8296,1.4,12.81,47.84626,-54.09684
2020-01-12 14:49:01+00:00,365.7662,1.38,12.81,47.84626,-54.09684
2020-01-12 14:59:01+00:00,360.2047,1.37,12.81,47.84626,-54.09684
2020-01-12 15:09:01+00:00,347.0763,1.35,12.81,47.84626,-54.09684
2020-01-12 15:19:01+00:00,335.0463,1.32,12.89,47.84626,-54.09684
2020-01-12 15:29:01+00:00,330.8997,1.38,12.89,47.84626,-54.09684
2020-01-12 15:39:01+00:00,321.123,1.4,12.89,47.84626,-54.09684
2020-01-12 15:49:01+00:00,306.5464,1.3,12.89,47.84626,-54.09684
2020-01-12 15:59:01+00:00,293.7331,1.3,12.89,47.84626,-54.09684
2020-01-12 16:09:01+00:00,285.7697,1.35,12.89,47.84626,-54.09684
2020-01-12 16:19:01+00:00,273.8198,1.4,12.97,47.84626,-54.09684
2020-01-12 16:29:01+00:00,270.7114,1.3,12.97,47.84626,-54.09684
2020-01-12 16:39:01+00:00,265.4915,1.3,12.97,47.84626,-54.09684
2020-01-12 16:49:01+00:00,256.3497,1.3,12.97,47.84626,-54.09684
2020-01-12 16:59:01+00:00,252.5264,1.3,12.97,47.84626,-54.09684
2020-01-12 17:09:01+00:00,248.9431,1.34,12.97,47.84626,-54.09684
2020-01-12 17:19:01+00:00,239.2031,1.35,12.97,47.84626,-54.09684
2020-01-12 17:29:01+00:00,228.0131,1.3,12.97,47.84626,-54.09684
2020-01-12 17:39:01+00:00,226.4231,1.23,12.97,47.84626,-54.09684
2020-01-12 17:49:01+00:00,230.0614,1.2,12.97,47.84626,-54.09684
2020-01-12 17:59:01+00:00,227.1031,1.2,12.97,47.84626,-54.09684
2020-01-12 18:09:01+00:00,222.9065,1.18,12.97,47.84626,-54.09684
2020-01-12 18:19:01+00:00,220.5448,1.2,12.81,47.84626,-54.09684
2020-01-12 18:29:01+00:00,210.8281,1.2,12.81,47.84626,-54.09684
2020-01-12 18:39:01+00:00,207.6131,1.2,12.81,47.84626,-54.09684
2020-01-12 18:49:01+00:00,213.3564,1.2,12.81,47.84626,-54.09684
2020-01-12 18:59:01+00:00,214.8531,1.2,12.81,47.84626,-54.09684
2020-01-12 19:09:01+00:00,205.8798,1.2,12.81,47.84626,-54.09684
2020-01-12 19:19:01+00:00,210.2798,1.17,12.65,47.84626,-54.09684
2020-01-12 19:29:01+00:00,211.8198,1.18,12.65,47.84626,-54.09684
2020-01-12 19:39:01+00:00,208.9481,1.13,12.65,47.84626,-54.09684
2020-01-12 19:49:01+00:00,218.1998,1.11,12.65,47.84626,-54.09684
2020-01-12 19:59:01+00:00,225.7514,1.16,12.65,47.84626,-54.09684
2020-01-12 20:09:01+00:00,223.0682,1.13,12.65,47.84626,-54.09684
2020-01-12 20:19:01+00:00,221.2481,1.1,12.65,47.84626,-54.09684
2020-01-12 20:29:01+00:00,230.0348,1.1,12.65,47.84626,-54.09684
2020-01-12 20:39:01+00:00,231.4081,1.1,12.65,47.84626,-54.09684
2020-01-12 20:49:01+00:00,232.7697,1.1,12.65,47.84626,-54.09684
2020-01-12 20:59:01+00:00,248.0648,1.09,12.65,47.84626,-54.09684
2020-01-12 21:09:01+00:00,254.5181,1.1,12.65,47.84626,-54.09684
2020-01-12 21:19:01+00:00,247.6731,1.0,12.65,47.84626,-54.09684
2020-01-12 21:29:01+00:00,251.8048,1.0,12.65,47.84626,-54.09684
2020-01-12 21:39:01+00:00,265.8081,1.0,12.65,47.84626,-54.09684
2020-01-12 21:49:01+00:00,269.2881,1.0,12.65,47.84626,-54.09684
2020-01-12 21:59:01+00:00,266.7931,0.98,12.65,47.84626,-54.09684
2020-01-12 22:09:01+00:00,278.373,0.97,12.65,47.84626,-54.09684
2020-01-12 22:19:01+00:00,291.0181,0.95,12.65,47.84626,-54.09684
2020-01-12 22:29:01+00:00,291.8864,0.9,12.65,47.84626,-54.09684
2020-01-12 22:39:01+00:00,288.6631,0.9,12.65,47.84626,-54.09684
2020-01-12 22:49:01+00:00,305.5714,0.9,12.65,47.84626,-54.09684
2020-01-12 22:59:01+00:00,324.1163,0.89,12.65,47.84626,-54.09684
2020-01-12 23:09:01+00:00,326.7097,0.79,12.65,47.84626,-54.09684
2020-01-12 23:19:01+00:00,317.0464,0.82,12.57,47.84626,-54.09684
2020-01-12 23:29:01+00:00,337.4064,0.87,12.57,47.84626,-54.09684
2020-01-12 23:39:01+00:00,347.4046,0.8,12.57,47.84626,-54.09684
2020-01-12 23:49:01+00:00,348.5447,0.8,12.57,47.84626,-54.09684
2020-01-12 23:59:01+00:00,361.7479,0.8,12.57,47.84626,-54.09684
